[[{"header":{"parameterUnit":"m.s-1","parameterCategory":1,"la1":30.2991,"la2":30.254,"lo1":-89.0895,"lo2":-89.0444,"dy":0.0017,"dx":0.0017,"nx":28,"ny":28,"refTime":"2025-08-12T21:00:00:Z","depth":0,"parameterNumber":2,"parameterNumberName":"U-component_of_WINDS"},"data":[0,0,0,0,0,0,0,0,0,0,0,0,0,0,0,0,0,0,0,0,0,0,0,0,0,0,0,0,0,0,0,0,0,0,0,0,0,0,0,0,0,0,0,0,0,0,0,0,0,0,0,0,0,0,0,0,0,0,3.2889,3.2889,0,3.2923,3.2923,3.2924,3.2885,3.2884,3.2882,3.2881,3.2919,3.2921,3.2923,0,0,0,0,0,0,0,0,0,0,0,0,0,3.2794,3.2796,3.2889,3.2889,3.289,3.2923,3.2923,3.2924,3.2886,3.2884,3.2882,3.288,3.2918,3.2921,3.2923,0,0,0,0,0,0,0,0,0,0,0,0,0,3.2833,3.2797,3.2889,3.2875,3.2874,3.2923,3.2923,3.2924,3.2886,3.2884,3.2881,3.2879,3.2917,3.292,3.2924,3.299,0,0,3.2935,3.2936,0,0,0,0,0,0,0,0,3.2831,3.2836,3.2876,3.2876,3.2875,3.2898,3.2904,3.2946,3.2886,3.2881,3.2881,3.2878,3.2914,3.2917,3.2929,3.2991,3.2993,3.2935,3.2937,3.2939,3.294,0,0,0,0,0,0,0,3.2828,3.2835,3.2902,3.2877,3.2876,3.2868,3.2871,3.2912,3.2909,3.2882,3.2879,3.2883,3.2913,3.2925,3.2929,3.2994,3.2935,3.2938,3.294,3.2942,3.3114,3.3116,0,0,0,0,0,0,3.2827,3.2833,3.2901,3.2904,3.2847,3.2871,3.2875,3.2893,3.2909,3.2909,3.2885,3.2881,3.292,3.2925,3.293,3.3009,3.2939,3.2942,3.2944,3.3111,3.3114,3.3117,0,0,0,0,0,0,3.2825,3.2833,3.29,3.2867,3.2875,3.2875,3.2896,3.2894,3.2907,3.2911,3.2911,3.2898,3.2919,3.2925,3.2975,3.301,3.2944,3.2947,3.3109,3.3112,3.3116,3.3166,0,0,0,0,0,0,3.2822,3.2833,3.2856,3.2868,3.2877,3.2943,3.2898,3.2897,3.2913,3.2908,3.2923,3.2924,3.2917,3.297,3.2979,3.3013,3.295,3.3105,3.311,3.3115,3.3162,3.3171,3.318,0,0,0,0,0,3.2819,3.287,3.2858,3.2866,3.2907,3.2945,3.2951,3.2941,3.2915,3.294,3.2944,3.2923,3.3005,3.2976,3.2985,3.3021,3.3103,3.3109,3.3114,3.3157,3.3169,3.3179,0,0,0,0,0,0,3.2862,3.2871,3.2858,3.2914,3.2929,3.2939,3.2969,3.2954,3.2977,3.2972,3.2961,3.2965,3.3018,3.3025,3.2992,3.3087,3.305,3.3058,3.308,3.3091,3.31,3.3097,3.2952,0,0,0,0,0,3.2878,3.2908,3.2914,3.2963,3.2971,3.2969,3.2986,3.2977,3.2993,3.3,3.3007,3.3024,3.3053,3.3073,3.31,3.3163,3.3166,3.3193,3.3202,3.3209,3.3215,3.325,3.3262,3.3135,3.3135,3.3135,0,0,3.2912,3.292,3.294,3.2972,3.2983,3.3015,3.2975,3.301,3.3034,3.3005,3.3052,3.3059,3.3077,3.3134,3.316,3.3141,3.3252,3.3216,3.3222,3.3224,3.3257,3.3269,3.328,3.3139,3.3138,3.3138,0,0,3.2989,3.2998,3.304,3.3052,3.3069,3.3068,3.3078,3.3091,3.3093,3.3141,3.312,3.3149,3.32,3.3214,3.3228,3.3313,3.3296,3.3322,3.3369,3.3403,3.3413,3.3422,3.3452,3.3463,3.3329,3.3329,3.3329,0,3.3028,3.3074,3.3064,3.3101,3.3116,3.3092,3.3135,3.3147,3.3173,3.3185,3.3164,3.3228,3.3239,3.3299,3.332,3.3332,3.3344,3.332,3.3412,3.3421,3.3429,3.3458,3.347,3.3332,3.3332,3.3332,3.3331,0,3.3123,3.3155,3.3187,3.3212,3.3232,3.3272,3.3268,3.3289,3.328,3.3282,3.3331,3.3343,3.3373,3.3387,3.3378,3.3447,3.3435,3.3414,3.3377,3.3445,3.3472,3.3483,3.3337,3.3336,3.3335,3.3334,0,0,3.3226,3.3245,3.3257,3.3269,3.3287,3.3313,3.3353,3.3381,3.34,3.3419,3.3453,3.3497,3.3478,3.3494,3.3487,3.3517,3.3584,3.3492,3.3493,3.3509,3.3661,3.3676,3.3689,3.3574,3.3576,3.3577,3.366,0,3.3303,3.337,3.3363,3.3428,3.3459,3.3438,3.3473,3.3488,3.3491,3.3519,3.3523,3.3554,3.3526,3.3536,3.3565,3.357,3.3615,3.3564,3.3605,3.3607,3.36,3.3703,3.3719,3.3796,3.367,3.3672,3.3673,0,3.3401,3.3424,3.3492,3.3506,3.3519,3.355,3.3577,3.3603,3.3622,3.3622,3.3641,3.3629,3.3671,3.3634,3.3692,3.3657,3.3674,3.368,3.3683,3.3685,3.3643,3.3708,3.382,3.3831,3.369,3.3688,3.3687,0,3.3469,3.3517,3.3564,3.3575,3.3593,3.3616,3.3625,3.3641,3.3659,3.3683,3.3695,3.3724,3.3739,3.3762,3.3759,3.3733,3.3819,3.3781,3.382,3.382,3.3838,3.3837,3.3954,3.3851,3.385,3.385,3.385,0,3.3556,3.3598,3.3595,3.3624,3.3672,3.3664,3.3712,3.3718,3.3733,3.3764,3.3748,3.3777,3.3772,3.3802,3.38,3.3848,3.3856,3.3858,3.3857,3.3859,3.3858,3.3868,3.3863,3.3853,3.3853,3.3852,3.3852,0,3.3639,3.3638,3.3688,3.3702,3.3707,3.3742,3.3754,3.3782,3.3785,3.3824,3.3833,3.3837,3.3871,3.3871,3.3911,3.391,3.3969,3.3962,3.3962,3.3961,3.4,3.3996,3.4126,3.4143,3.403,3.4031,3.4032,0,3.3693,3.3725,3.3743,3.3762,3.3773,3.3804,3.3822,3.3817,3.3838,3.3862,3.3887,3.392,3.3946,3.4003,3.401,3.404,3.4034,3.4078,3.4038,3.404,3.4034,3.4032,3.4035,3.4085,3.4086,3.4087,3.4088,0,3.379,3.3789,3.3815,3.3843,3.3866,3.3888,3.3908,3.3925,3.3922,3.3946,3.3981,3.4001,3.4042,3.4075,3.4105,3.4115,3.4102,3.4101,3.4111,3.4113,3.4111,3.4112,3.3982,3.4097,3.4096,3.4096,3.4095,3.4095,3.386,3.3888,3.3905,3.3936,3.3951,3.397,3.3998,3.4004,3.4033,3.4065,3.4061,3.41,3.4119,3.4158,3.4171,3.4202,3.4187,3.4203,3.4206,3.421,3.4214,3.4108,3.4208,3.4208,3.4208,3.4207,3.4207,0,3.3955,3.3966,3.3995,3.4023,3.4048,3.4034,3.4056,3.4078,3.4112,3.4131,3.4157,3.4198,3.4231,3.4241,3.4273,3.4296,3.4291,3.4305,3.4302,3.4305,3.4226,3.4213,3.4309,3.4309,3.4309,3.4309,3.4309,3.4309,3.4007,3.4054,3.4055,3.411,3.412,3.4158,3.4172,3.419,3.4206,3.4252,3.4279,3.4285,3.4302,3.4335,3.4365,3.4367,3.4379,3.4396,3.4396,3.4321,3.4311,3.4301,3.4289,3.4399,3.4399,3.4472,3.4473,3.4473]},{"header":{"parameterUnit":"m.s-1","parameterCategory":1,"la1":30.2991,"la2":30.254,"lo1":-89.0895,"lo2":-89.0444,"dy":0.0017,"dx":0.0017,"nx":28,"ny":28,"refTime":"2025-08-12T21:00:00:Z","depth":0,"parameterNumber":3,"parameterNumberName":"V-component_of_WINDS"},"data":[0,0,0,0,0,0,0,0,0,0,0,0,0,0,0,0,0,0,0,0,0,0,0,0,0,0,0,0,0,0,0,0,0,0,0,0,0,0,0,0,0,0,0,0,0,0,0,0,0,0,0,0,0,0,0,0,0,0,2.6309,2.631,0,2.6404,2.6406,2.6407,2.6451,2.6451,2.6451,2.6451,2.6546,2.6548,2.6551,0,0,0,0,0,0,0,0,0,0,0,0,0,2.6159,2.6162,2.6309,2.631,2.6311,2.6404,2.6406,2.6407,2.6451,2.6451,2.6451,2.6451,2.6545,2.6548,2.6551,0,0,0,0,0,0,0,0,0,0,0,0,0,2.6236,2.6163,2.6308,2.6344,2.6348,2.6404,2.6406,2.6407,2.6451,2.6451,2.6451,2.6451,2.6544,2.6548,2.6551,2.6578,0,0,2.6563,2.6565,0,0,0,0,0,0,0,0,2.6232,2.6242,2.6338,2.6342,2.6347,2.6416,2.6388,2.6464,2.6451,2.6412,2.6451,2.6451,2.6502,2.651,2.6528,2.6582,2.6586,2.6564,2.6566,2.6568,2.6569,0,0,0,0,0,0,0,2.6227,2.6238,2.6346,2.6339,2.6345,2.6354,2.6365,2.6403,2.6456,2.6415,2.6419,2.643,2.6505,2.6524,2.653,2.6587,2.6564,2.6567,2.6569,2.6571,2.6666,2.6666,0,0,0,0,0,0,2.6216,2.6233,2.6343,2.6349,2.6288,2.6357,2.6369,2.6394,2.6456,2.6466,2.643,2.6431,2.6517,2.6526,2.6534,2.6568,2.6568,2.6571,2.6574,2.6666,2.6666,2.6666,0,0,0,0,0,0,2.6213,2.6225,2.634,2.6292,2.6308,2.636,2.6387,2.6395,2.6415,2.6467,2.6476,2.644,2.6517,2.6528,2.6566,2.6572,2.6573,2.6577,2.6666,2.6666,2.6666,2.6636,0,0,0,0,0,0,2.6208,2.6224,2.6236,2.6292,2.631,2.6372,2.6387,2.6397,2.6422,2.6425,2.6479,2.6488,2.6518,2.656,2.657,2.6577,2.658,2.6665,2.6666,2.6666,2.6637,2.6635,2.6634,0,0,0,0,0,2.6203,2.6223,2.6236,2.6249,2.6326,2.6372,2.6382,2.6418,2.6422,2.6433,2.6467,2.6486,2.6569,2.6564,2.6575,2.6583,2.6665,2.6666,2.6666,2.6638,2.6636,2.6634,0,0,0,0,0,0,2.6165,2.6231,2.6246,2.6286,2.6323,2.6379,2.6395,2.6415,2.645,2.6452,2.6493,2.6505,2.6539,2.6565,2.6557,2.6611,2.6619,2.6622,2.6593,2.6592,2.659,2.6584,2.6583,0,0,0,0,0,2.6161,2.6194,2.625,2.6279,2.6297,2.6343,2.6364,2.6388,2.6428,2.6444,2.648,2.6516,2.6551,2.6573,2.6607,2.6641,2.6652,2.6652,2.665,2.6649,2.6651,2.6669,2.6669,2.6668,2.6668,2.6668,0,0,2.6154,2.6194,2.6213,2.6273,2.6304,2.6336,2.6356,2.6389,2.6413,2.6448,2.6487,2.6514,2.6558,2.6593,2.661,2.6616,2.6654,2.6649,2.6648,2.6651,2.6669,2.6669,2.667,2.6668,2.6668,2.6668,0,0,2.6157,2.6191,2.6219,2.625,2.6298,2.6328,2.6334,2.6387,2.6407,2.6446,2.6473,2.6501,2.656,2.659,2.6612,2.6624,2.6643,2.6634,2.6627,2.6644,2.6645,2.6645,2.6648,2.6649,2.6636,2.6636,2.6636,0,2.6142,2.6193,2.6231,2.6263,2.6287,2.6321,2.6349,2.6377,2.6433,2.6449,2.6454,2.6527,2.6559,2.6601,2.6604,2.6622,2.6629,2.6629,2.6642,2.6642,2.6643,2.6647,2.6648,2.6635,2.6635,2.6635,2.6635,0,2.6171,2.6205,2.6222,2.6276,2.6302,2.6332,2.6373,2.6395,2.6416,2.6444,2.6483,2.6522,2.6564,2.6576,2.6597,2.6621,2.6622,2.6634,2.6643,2.6641,2.6646,2.6647,2.6633,2.6633,2.6633,2.6634,0,0,2.6155,2.6228,2.6234,2.6258,2.6312,2.6339,2.6369,2.6411,2.6429,2.6465,2.6491,2.6539,2.6549,2.6575,2.6599,2.6614,2.662,2.6624,2.6626,2.6622,2.6648,2.6639,2.664,2.6633,2.6633,2.6633,2.6644,0,2.6165,2.6222,2.6256,2.6298,2.633,2.6361,2.6387,2.6422,2.6449,2.6478,2.6508,2.6541,2.6553,2.6568,2.6585,2.6616,2.6626,2.6616,2.6656,2.6657,2.6644,2.6642,2.6633,2.6641,2.6646,2.6646,2.6646,0,2.6186,2.6222,2.6268,2.6317,2.6332,2.6354,2.6395,2.6423,2.6463,2.6481,2.6509,2.6533,2.6564,2.6569,2.6612,2.6604,2.6622,2.664,2.6641,2.6646,2.6652,2.6647,2.6645,2.6646,2.665,2.6649,2.6649,0,2.6168,2.6229,2.6264,2.6284,2.6342,2.6357,2.6382,2.6422,2.6445,2.6479,2.6494,2.6532,2.6552,2.658,2.6613,2.6614,2.6652,2.666,2.6667,2.6666,2.6674,2.6673,2.6674,2.6685,2.6685,2.6685,2.6685,0,2.6177,2.6203,2.6257,2.6278,2.6308,2.6346,2.6374,2.6401,2.6436,2.6462,2.6491,2.6514,2.6556,2.6584,2.661,2.6641,2.665,2.6664,2.6671,2.6662,2.666,2.6675,2.6675,2.6686,2.6686,2.6685,2.6685,0,2.6163,2.62,2.624,2.6292,2.6306,2.6325,2.6369,2.639,2.6418,2.645,2.646,2.6503,2.6538,2.6573,2.662,2.6637,2.6667,2.6676,2.6654,2.6657,2.6662,2.6661,2.6673,2.6676,2.6684,2.6684,2.6684,0,2.6166,2.6188,2.6242,2.6262,2.6286,2.6318,2.6341,2.6378,2.6401,2.6446,2.6462,2.6498,2.653,2.6583,2.6618,2.6653,2.6663,2.6665,2.6668,2.6658,2.6663,2.6661,2.6663,2.6663,2.6663,2.6663,2.6663,0,2.6168,2.6185,2.6218,2.6257,2.6284,2.6316,2.6349,2.6364,2.6407,2.643,2.6467,2.6491,2.6538,2.6574,2.6613,2.6637,2.6656,2.6661,2.6664,2.6656,2.6642,2.6649,2.665,2.6661,2.6661,2.6661,2.6661,2.6661,2.6163,2.6182,2.6223,2.6259,2.6288,2.6317,2.634,2.637,2.6401,2.6443,2.6462,2.6498,2.6535,2.659,2.6613,2.6641,2.6646,2.6651,2.6653,2.6653,2.6651,2.6637,2.6648,2.6648,2.6648,2.6648,2.6648,0,2.6165,2.6193,2.6225,2.6271,2.6298,2.6314,2.6351,2.6373,2.6404,2.6438,2.6468,2.6508,2.6542,2.6579,2.6615,2.663,2.664,2.6638,2.6638,2.6643,2.6644,2.6637,2.663,2.663,2.663,2.663,2.663,2.663,2.617,2.6204,2.6225,2.6273,2.63,2.6336,2.6356,2.6383,2.641,2.6454,2.6483,2.6507,2.6541,2.658,2.6611,2.6621,2.6633,2.6628,2.6641,2.6641,2.6643,2.6644,2.6638,2.6631,2.6631,2.6637,2.6637,2.6637]}]]